[[{"header":{"parameterUnit":"m.s-1","parameterCategory":2,"la1":30.2991,"la2":30.254,"lo1":-89.0895,"lo2":-89.0444,"dy":0.0017,"dx":0.0017,"nx":28,"ny":28,"refTime":"2024-08-27T03:00:00:Z","depth":"0","parameterNumber":2,"parameterNumberName":"U-component_of_CURRENTS"},"data":[0,0,0,0,0,0,0,0,0,0,0,0,0,0,0,0,0,0,0,0,0,0,0,0,0,0,0,0,0,0,0,0,0,0,0,0,0,0,0,0,0,0,0,0,0,0,0,0,0,0,0,0,0,0,0,0,0,0,-0.2651,-0.2652,0,-0.2659,-0.2658,-0.2658,-0.2593,-0.2592,-0.259,-0.2589,-0.2476,-0.2474,-0.2472,0,0,0,0,0,0,0,0,0,0,0,0,0,-0.2542,-0.2544,-0.2651,-0.2652,-0.2652,-0.2659,-0.2658,-0.2658,-0.2593,-0.2591,-0.259,-0.2589,-0.2477,-0.2474,-0.2472,0,0,0,0,0,0,0,0,0,0,0,0,0,-0.2568,-0.2545,-0.2651,-0.2626,-0.2624,-0.2659,-0.2658,-0.2658,-0.2593,-0.2591,-0.259,-0.2588,-0.2477,-0.2475,-0.2472,-0.249,0,0,-0.2463,-0.2462,0,0,0,0,0,0,0,0,-0.2566,-0.2571,-0.2629,-0.2628,-0.2626,-0.2629,-0.2579,-0.2598,-0.2594,-0.2598,-0.2589,-0.2587,-0.2522,-0.2515,-0.2513,-0.2485,-0.248,-0.2463,-0.2461,-0.246,-0.2459,0,0,0,0,0,0,0,-0.2565,-0.257,-0.2647,-0.263,-0.2628,-0.2602,-0.2603,-0.2582,-0.2562,-0.2597,-0.2594,-0.2606,-0.2519,-0.2516,-0.2509,-0.2478,-0.2463,-0.246,-0.2459,-0.2457,-0.2507,-0.251,0,0,0,0,0,0,-0.2582,-0.2569,-0.2647,-0.2648,-0.2599,-0.2606,-0.2607,-0.2624,-0.2565,-0.2557,-0.2608,-0.2604,-0.2521,-0.2513,-0.2505,-0.2577,-0.246,-0.2457,-0.2456,-0.2504,-0.2508,-0.2511,0,0,0,0,0,0,-0.2579,-0.2589,-0.2647,-0.2613,-0.2619,-0.2611,-0.263,-0.2625,-0.2624,-0.2576,-0.2564,-0.2612,-0.252,-0.2509,-0.2505,-0.257,-0.2456,-0.2453,-0.25,-0.2505,-0.2509,-0.2687,0,0,0,0,0,0,-0.2576,-0.2588,-0.2603,-0.2615,-0.2622,-0.269,-0.2632,-0.2627,-0.2637,-0.2631,-0.2575,-0.2563,-0.2517,-0.251,-0.2502,-0.2564,-0.2451,-0.2496,-0.2502,-0.2508,-0.2677,-0.2697,-0.2714,0,0,0,0,0,-0.2572,-0.2611,-0.2603,-0.2613,-0.2644,-0.2693,-0.2695,-0.2676,-0.2639,-0.2661,-0.262,-0.2565,-0.254,-0.251,-0.25,-0.2563,-0.2494,-0.2501,-0.2507,-0.2669,-0.2693,-0.2713,0,0,0,0,0,0,-0.2562,-0.2609,-0.2601,-0.2647,-0.2677,-0.2685,-0.2704,-0.2688,-0.2674,-0.2655,-0.2593,-0.2581,-0.2604,-0.256,-0.2528,-0.2595,-0.2512,-0.2518,-0.2639,-0.2661,-0.2679,-0.2706,-0.2449,0,0,0,0,0,-0.2572,-0.2614,-0.2648,-0.2683,-0.2704,-0.2703,-0.2716,-0.2708,-0.2702,-0.2692,-0.2657,-0.2627,-0.2629,-0.2623,-0.2605,-0.2637,-0.2552,-0.2674,-0.2693,-0.2708,-0.2726,-0.2678,-0.2693,-0.2533,-0.2533,-0.2533,0,0,-0.2568,-0.2607,-0.2622,-0.2685,-0.2698,-0.2773,-0.2705,-0.2739,-0.2797,-0.2683,-0.2729,-0.2683,-0.265,-0.2691,-0.2699,-0.2659,-0.2701,-0.2717,-0.2731,-0.274,-0.2687,-0.2702,-0.2716,-0.2538,-0.2537,-0.2536,0,0,-0.2633,-0.2629,-0.2708,-0.2749,-0.2801,-0.281,-0.2828,-0.2847,-0.2849,-0.2882,-0.283,-0.2833,-0.281,-0.2825,-0.2824,-0.2936,-0.2796,-0.2919,-0.3037,-0.2992,-0.3004,-0.3014,-0.2881,-0.2878,-0.2932,-0.2933,-0.2933,0,-0.2632,-0.2722,-0.2734,-0.2836,-0.2861,-0.2842,-0.292,-0.2954,-0.2965,-0.2961,-0.2917,-0.2903,-0.2891,-0.2955,-0.3012,-0.2983,-0.2882,-0.2956,-0.3014,-0.3023,-0.3029,-0.2891,-0.2885,-0.2942,-0.2941,-0.294,-0.2939,0,-0.2779,-0.2836,-0.2882,-0.3001,-0.3043,-0.3088,-0.3141,-0.3167,-0.314,-0.3142,-0.3158,-0.3131,-0.3108,-0.3135,-0.3117,-0.318,-0.3064,-0.3037,-0.2956,-0.3056,-0.2903,-0.2894,-0.2956,-0.2952,-0.2949,-0.2947,0,0,-0.2783,-0.2949,-0.2959,-0.2977,-0.3107,-0.3113,-0.3255,-0.3309,-0.3295,-0.3342,-0.3308,-0.3414,-0.3337,-0.3336,-0.3303,-0.3309,-0.3291,-0.3209,-0.3202,-0.3072,-0.3099,-0.3053,-0.3035,-0.3251,-0.3252,-0.3253,-0.2954,0,-0.287,-0.302,-0.3116,-0.3199,-0.3236,-0.328,-0.3368,-0.3417,-0.3406,-0.3368,-0.3395,-0.3349,-0.3435,-0.336,-0.3415,-0.328,-0.328,-0.3369,-0.3027,-0.3016,-0.296,-0.3032,-0.2923,-0.2654,-0.2944,-0.2942,-0.2941,0,-0.297,-0.3031,-0.3143,-0.3178,-0.3199,-0.3267,-0.3267,-0.3343,-0.3374,-0.3345,-0.3375,-0.3332,-0.3382,-0.3382,-0.3331,-0.3361,-0.3278,-0.32,-0.3184,-0.3081,-0.2957,-0.261,-0.2624,-0.2609,-0.2925,-0.2926,-0.2927,0,-0.2852,-0.3012,-0.3054,-0.3087,-0.3188,-0.3214,-0.325,-0.3311,-0.3297,-0.3293,-0.3217,-0.3283,-0.3203,-0.3203,-0.3168,-0.3195,-0.3024,-0.3013,-0.2902,-0.289,-0.2708,-0.2682,-0.2671,-0.2986,-0.2987,-0.2988,-0.2989,0,-0.2844,-0.285,-0.2978,-0.2975,-0.2943,-0.3077,-0.303,-0.3078,-0.3099,-0.3055,-0.316,-0.3105,-0.3155,-0.3097,-0.3089,-0.2972,-0.2972,-0.2929,-0.2841,-0.2762,-0.2747,-0.2652,-0.2682,-0.2977,-0.2979,-0.2981,-0.2983,0,-0.2666,-0.2796,-0.2784,-0.2869,-0.288,-0.2827,-0.2864,-0.2836,-0.2894,-0.2826,-0.2818,-0.2895,-0.2854,-0.2886,-0.2793,-0.2809,-0.2664,-0.2683,-0.2562,-0.2473,-0.2382,-0.2426,-0.2284,-0.2221,-0.2467,-0.2464,-0.2462,0,-0.258,-0.2572,-0.2613,-0.2595,-0.2622,-0.2594,-0.2593,-0.2687,-0.268,-0.2714,-0.2664,-0.2644,-0.2645,-0.2513,-0.2522,-0.2444,-0.2511,-0.2296,-0.241,-0.2384,-0.2365,-0.2398,-0.2359,-0.2176,-0.2172,-0.2169,-0.2166,0,-0.2341,-0.2367,-0.2354,-0.2337,-0.2328,-0.2303,-0.2324,-0.2298,-0.2429,-0.2405,-0.242,-0.2425,-0.237,-0.2299,-0.2242,-0.2209,-0.2248,-0.2223,-0.2227,-0.2195,-0.2193,-0.2083,-0.2311,-0.2135,-0.2138,-0.214,-0.2142,-0.2143,-0.2126,-0.2054,-0.2083,-0.2046,-0.2051,-0.206,-0.2002,-0.2075,-0.2061,-0.2072,-0.2166,-0.2144,-0.2143,-0.2072,-0.2038,-0.1934,-0.2011,-0.1892,-0.1943,-0.1976,-0.1977,-0.2137,-0.188,-0.1881,-0.1882,-0.1884,-0.1885,0,-0.1876,-0.1858,-0.1807,-0.1803,-0.1767,-0.1844,-0.1858,-0.1823,-0.1802,-0.1849,-0.1852,-0.1874,-0.1803,-0.1827,-0.1757,-0.1686,-0.1661,-0.1651,-0.1675,-0.1646,-0.1771,-0.1829,-0.1514,-0.1514,-0.1514,-0.1514,-0.1514,-0.1514,-0.1758,-0.1655,-0.1658,-0.1555,-0.1558,-0.1494,-0.1489,-0.1471,-0.1485,-0.1464,-0.1493,-0.156,-0.1615,-0.1748,-0.1659,-0.158,-0.1564,-0.1495,-0.1543,-0.1658,-0.1686,-0.1712,-0.1776,-0.1455,-0.1455,-0.1339,-0.1338,-0.1338]},{"header":{"parameterUnit":"m.s-1","parameterCategory":2,"la1":30.2991,"la2":30.254,"lo1":-89.0895,"lo2":-89.0444,"dy":0.0017,"dx":0.0017,"nx":28,"ny":28,"refTime":"2024-08-27T03:00:00:Z","depth":"0","parameterNumber":3,"parameterNumberName":"V-component_of_CURRENTS"},"data":[0,0,0,0,0,0,0,0,0,0,0,0,0,0,0,0,0,0,0,0,0,0,0,0,0,0,0,0,0,0,0,0,0,0,0,0,0,0,0,0,0,0,0,0,0,0,0,0,0,0,0,0,0,0,0,0,0,0,-0.0144,-0.0143,0,-0.0037,-0.0036,-0.0034,0.0024,0.0024,0.0024,0.0024,0.0136,0.0138,0.0141,0,0,0,0,0,0,0,0,0,0,0,0,0,-0.021,-0.0209,-0.0144,-0.0143,-0.0141,-0.0037,-0.0036,-0.0034,0.0024,0.0024,0.0024,0.0024,0.0135,0.0138,0.0141,0,0,0,0,0,0,0,0,0,0,0,0,0,-0.015,-0.0209,-0.0144,-0.01,-0.0095,-0.0037,-0.0036,-0.0034,0.0024,0.0024,0.0024,0.0024,0.0134,0.0138,0.0142,0.0164,0,0,0.0155,0.0157,0,0,0,0,0,0,0,0,-0.0154,-0.0148,-0.0108,-0.0103,-0.0097,-0.002,-0.0018,0.0032,0.0024,-0.0021,0.0024,0.0025,0.0084,0.0092,0.0112,0.0169,0.0174,0.0155,0.0158,0.016,0.0161,0,0,0,0,0,0,0,-0.0158,-0.0152,-0.0102,-0.0106,-0.01,-0.0055,-0.0047,-0.0008,0.0029,-0.0017,-0.0013,-0.0001,0.0087,0.0108,0.0115,0.0175,0.0155,0.0159,0.0161,0.0163,0.0263,0.0263,0,0,0,0,0,0,-0.0176,-0.0156,-0.0105,-0.0098,-0.0125,-0.0054,-0.0045,-0.0045,0.0028,0.004,-0.0001,0.0001,0.01,0.011,0.0119,0.0147,0.016,0.0163,0.0166,0.0263,0.0263,0.0263,0,0,0,0,0,0,-0.0178,-0.0173,-0.0109,-0.0124,-0.0113,-0.0054,-0.0053,-0.0043,-0.0022,0.0041,0.0052,0.0009,0.0101,0.0113,0.015,0.0152,0.0165,0.0169,0.0263,0.0263,0.0263,0.0205,0,0,0,0,0,0,-0.0181,-0.0175,-0.0183,-0.0126,-0.0113,-0.0087,-0.0053,-0.0041,-0.0015,-0.001,0.0053,0.0064,0.0102,0.0144,0.0154,0.0158,0.0173,0.0263,0.0263,0.0263,0.0207,0.0203,0.02,0,0,0,0,0,-0.0184,-0.02,-0.0184,-0.0178,-0.0126,-0.0087,-0.0077,-0.0033,-0.0015,-0.0012,0.0033,0.0062,0.0153,0.0147,0.016,0.0165,0.0263,0.0263,0.0263,0.0208,0.0204,0.02,0,0,0,0,0,0,-0.0236,-0.0194,-0.0175,-0.018,-0.014,-0.0077,-0.0072,-0.0038,0.0002,0.0004,0.0064,0.0077,0.0111,0.0145,0.0137,0.0195,0.0213,0.0215,0.0166,0.0163,0.0159,0.0143,0.0176,0,0,0,0,0,-0.0252,-0.0253,-0.02,-0.0205,-0.0189,-0.0131,-0.011,-0.0079,-0.0034,-0.0016,0.0029,0.0078,0.0123,0.0147,0.0187,0.0218,0.0253,0.023,0.0226,0.0223,0.0219,0.0285,0.0288,0.0264,0.0264,0.0264,0,0,-0.0275,-0.0251,-0.0253,-0.0216,-0.0183,-0.0165,-0.0118,-0.0095,-0.0077,-0.0011,0.0018,0.0066,0.0127,0.0162,0.018,0.0191,0.0244,0.0224,0.022,0.0218,0.0286,0.0288,0.029,0.0265,0.0265,0.0265,0,0,-0.0326,-0.0301,-0.032,-0.0285,-0.0241,-0.0199,-0.0195,-0.0136,-0.0109,-0.0074,-0.0019,0.003,0.0088,0.0142,0.0175,0.0179,0.0222,0.0188,0.0163,0.0226,0.0229,0.0231,0.0256,0.0261,0.0189,0.0189,0.0189,0,-0.0356,-0.0367,-0.0318,-0.0316,-0.0291,-0.0219,-0.022,-0.018,-0.0115,-0.0091,-0.0079,0.0034,0.0082,0.0148,0.0146,0.0172,0.0199,0.0171,0.0221,0.0225,0.0229,0.0253,0.026,0.0186,0.0187,0.0187,0.0187,0,-0.0414,-0.0412,-0.0417,-0.039,-0.0355,-0.0345,-0.0276,-0.0245,-0.0203,-0.0155,-0.0092,-0.0016,0.0052,0.0077,0.011,0.0166,0.0172,0.0206,0.0228,0.0227,0.0253,0.0261,0.0182,0.0183,0.0184,0.0185,0,0,-0.0505,-0.047,-0.0469,-0.0459,-0.0391,-0.0367,-0.0334,-0.0278,-0.0251,-0.0185,-0.0148,-0.0059,-0.001,0.0031,0.0094,0.0149,0.0191,0.0178,0.0183,0.0194,0.0302,0.0346,0.0359,0.0234,0.0236,0.0237,0.0301,0,-0.0566,-0.0583,-0.054,-0.0536,-0.0532,-0.0444,-0.0416,-0.0349,-0.0287,-0.0235,-0.0138,-0.0083,-0.0028,0.0004,0.007,0.0163,0.0213,0.0169,0.0308,0.0311,0.0346,0.0372,0.0407,0.0472,0.0309,0.031,0.0311,0,-0.0636,-0.0632,-0.0649,-0.0598,-0.0588,-0.0568,-0.049,-0.0456,-0.0356,-0.0309,-0.0223,-0.0149,-0.0053,-0.0011,0.0148,0.0115,0.0197,0.0268,0.0273,0.0343,0.0372,0.0453,0.0493,0.0638,0.0324,0.0323,0.0322,0,-0.0716,-0.0702,-0.0716,-0.0698,-0.0634,-0.0617,-0.058,-0.0485,-0.0449,-0.0355,-0.0317,-0.0191,-0.013,-0.0001,0.015,0.0146,0.0317,0.0336,0.0454,0.0456,0.0529,0.0536,0.0725,0.0448,0.0448,0.0448,0.0448,0,-0.079,-0.0797,-0.0757,-0.0757,-0.0756,-0.069,-0.0668,-0.0606,-0.0528,-0.0483,-0.0365,-0.0296,-0.0123,0.0003,0.0132,0.0319,0.0311,0.0453,0.0489,0.0507,0.0511,0.0676,0.0729,0.045,0.045,0.0449,0.0449,0,-0.086,-0.0848,-0.0847,-0.0801,-0.0792,-0.0785,-0.0726,-0.0706,-0.0627,-0.0564,-0.0538,-0.0379,-0.0209,-0.0029,0.0178,0.0299,0.0567,0.0538,0.0527,0.0562,0.0801,0.0847,0.1047,0.1139,0.0667,0.0669,0.067,0,-0.0899,-0.091,-0.0875,-0.0877,-0.0857,-0.0843,-0.0832,-0.0762,-0.073,-0.0599,-0.0573,-0.0406,-0.0256,0.0057,0.0297,0.0535,0.065,0.0698,0.0714,0.0831,0.091,0.0932,0.0996,0.0772,0.0774,0.0775,0.0777,0,-0.0943,-0.0924,-0.0911,-0.092,-0.0919,-0.0914,-0.0893,-0.0885,-0.0795,-0.0725,-0.0599,-0.0475,-0.0159,0.0149,0.0459,0.06,0.0812,0.0741,0.0888,0.1032,0.1046,0.1145,0.0679,0.0792,0.0791,0.079,0.0789,0.0788,-0.0954,-0.0952,-0.0935,-0.094,-0.0956,-0.097,-0.0959,-0.0923,-0.0871,-0.074,-0.0627,-0.041,0.0035,0.049,0.0662,0.1013,0.0966,0.1112,0.116,0.1173,0.1273,0.0823,0.0967,0.0967,0.0966,0.0966,0.0966,0,-0.095,-0.0949,-0.0957,-0.0964,-0.0991,-0.0988,-0.0981,-0.0946,-0.088,-0.0736,-0.0582,-0.0111,0.0336,0.0734,0.1243,0.1429,0.1465,0.1506,0.1557,0.1606,0.1239,0.1257,0.1442,0.1442,0.1442,0.1442,0.1442,0.1442,-0.095,-0.0946,-0.0947,-0.0983,-0.1001,-0.101,-0.1003,-0.0935,-0.0824,-0.0556,-0.0301,-0.009,0.0478,0.1319,0.1786,0.1816,0.1978,0.1942,0.2037,0.179,0.1756,0.1725,0.1758,0.2045,0.2046,0.2394,0.2397,0.24]}],[{"header":{"parameterUnit":"m.s-1","parameterCategory":2,"la1":30.2991,"la2":30.254,"lo1":-89.0895,"lo2":-89.0444,"dy":0.0017,"dx":0.0017,"nx":28,"ny":28,"refTime":"2024-08-27T03:00:00:Z","depth":"2","parameterNumber":2,"parameterNumberName":"U-component_of_CURRENTS"},"data":[0,0,0,0,0,0,0,0,0,0,0,0,0,0,0,0,0,0,0,0,0,0,0,0,0,0,0,0,0,0,0,0,0,0,0,0,0,0,0,0,0,0,0,0,0,0,0,0,0,0,0,0,0,0,0,0,0,0,-0.2571,-0.2571,0,-0.2594,-0.2594,-0.2594,-0.2568,-0.2567,-0.2567,-0.2566,-0.2506,-0.2505,-0.2504,0,0,0,0,0,0,0,0,0,0,0,0,0,-0.2465,-0.2467,-0.2571,-0.2571,-0.2572,-0.2594,-0.2594,-0.2594,-0.2568,-0.2567,-0.2567,-0.2566,-0.2506,-0.2505,-0.2504,0,0,0,0,0,0,0,0,0,0,0,0,0,-0.25,-0.2468,-0.2571,-0.2564,-0.2563,-0.2594,-0.2594,-0.2594,-0.2568,-0.2567,-0.2566,-0.2565,-0.2506,-0.2505,-0.2504,-0.2517,0,0,-0.2499,-0.2499,0,0,0,0,0,0,0,0,-0.2498,-0.2503,-0.2564,-0.2564,-0.2564,-0.2579,-0.2535,-0.2565,-0.2569,-0.2564,-0.2566,-0.2565,-0.2525,-0.2522,-0.2526,-0.2514,-0.2511,-0.2499,-0.2498,-0.2498,-0.2497,0,0,0,0,0,0,0,-0.2495,-0.2502,-0.2577,-0.2565,-0.2565,-0.2546,-0.255,-0.254,-0.2547,-0.2564,-0.2563,-0.257,-0.2524,-0.2528,-0.2524,-0.2511,-0.2499,-0.2498,-0.2497,-0.2497,-0.2521,-0.2522,0,0,0,0,0,0,-0.2502,-0.25,-0.2576,-0.2578,-0.2531,-0.2549,-0.2553,-0.2573,-0.2548,-0.2545,-0.2571,-0.2569,-0.2531,-0.2526,-0.2522,-0.2573,-0.2498,-0.2496,-0.2496,-0.252,-0.2521,-0.2523,0,0,0,0,0,0,-0.25,-0.2509,-0.2575,-0.254,-0.2548,-0.2553,-0.2575,-0.2574,-0.2576,-0.2555,-0.2549,-0.2573,-0.253,-0.2524,-0.2528,-0.2568,-0.2496,-0.2495,-0.2518,-0.252,-0.2522,-0.265,0,0,0,0,0,0,-0.2497,-0.2508,-0.2519,-0.2542,-0.255,-0.2599,-0.2577,-0.2576,-0.2584,-0.2581,-0.2555,-0.2549,-0.2528,-0.2531,-0.2527,-0.2565,-0.2493,-0.2516,-0.2519,-0.2521,-0.2644,-0.2656,-0.2667,0,0,0,0,0,-0.2493,-0.2507,-0.252,-0.2529,-0.2568,-0.26,-0.2603,-0.26,-0.2585,-0.2594,-0.2584,-0.255,-0.2545,-0.2531,-0.2526,-0.2565,-0.2515,-0.2518,-0.2521,-0.2639,-0.2654,-0.2666,0,0,0,0,0,0,-0.2459,-0.2508,-0.2521,-0.2548,-0.2579,-0.2597,-0.26,-0.2604,-0.2605,-0.2597,-0.257,-0.2564,-0.258,-0.2553,-0.2538,-0.2578,-0.2524,-0.2526,-0.2615,-0.2628,-0.264,-0.2629,-0.2492,0,0,0,0,0,-0.2463,-0.2494,-0.2533,-0.2558,-0.257,-0.2588,-0.2598,-0.2607,-0.2613,-0.2612,-0.2595,-0.2583,-0.2592,-0.2594,-0.2582,-0.2608,-0.254,-0.2628,-0.264,-0.265,-0.2637,-0.262,-0.2629,-0.2534,-0.2534,-0.2534,0,0,-0.2454,-0.2489,-0.2503,-0.2555,-0.2571,-0.2599,-0.259,-0.2615,-0.2638,-0.2605,-0.2614,-0.2614,-0.2604,-0.2636,-0.2641,-0.262,-0.2629,-0.2654,-0.2663,-0.2644,-0.2624,-0.2633,-0.2641,-0.2536,-0.2536,-0.2535,0,0,-0.2461,-0.2487,-0.2516,-0.2541,-0.2584,-0.2605,-0.2615,-0.264,-0.2648,-0.2679,-0.2662,-0.2695,-0.2686,-0.2707,-0.2715,-0.2781,-0.2685,-0.277,-0.2831,-0.2817,-0.2824,-0.283,-0.2705,-0.2699,-0.2786,-0.2786,-0.2786,0,-0.2451,-0.2488,-0.2526,-0.2557,-0.2575,-0.2609,-0.2634,-0.2659,-0.2683,-0.2701,-0.269,-0.2705,-0.2728,-0.2765,-0.2819,-0.281,-0.2736,-0.2787,-0.2833,-0.2837,-0.2841,-0.2711,-0.2703,-0.2793,-0.2792,-0.2791,-0.2791,0,-0.2475,-0.25,-0.2514,-0.2572,-0.2607,-0.2627,-0.2677,-0.2706,-0.2727,-0.2755,-0.2782,-0.2801,-0.2802,-0.2845,-0.2872,-0.2915,-0.2826,-0.2844,-0.2799,-0.2858,-0.2717,-0.2706,-0.2802,-0.28,-0.2798,-0.2796,0,0,-0.2432,-0.2518,-0.2512,-0.2533,-0.2608,-0.2629,-0.2696,-0.2757,-0.2763,-0.2813,-0.2809,-0.2911,-0.2898,-0.2905,-0.2917,-0.2954,-0.2957,-0.2932,-0.2928,-0.2806,-0.2826,-0.279,-0.2772,-0.2983,-0.2983,-0.2983,-0.2697,0,-0.2425,-0.2475,-0.2532,-0.2565,-0.258,-0.2651,-0.2687,-0.2756,-0.2798,-0.28,-0.2857,-0.2854,-0.2919,-0.2911,-0.2964,-0.295,-0.294,-0.3025,-0.2785,-0.2775,-0.274,-0.2765,-0.2597,-0.2333,-0.2685,-0.2683,-0.2682,0,-0.2392,-0.2437,-0.2478,-0.2534,-0.2545,-0.2581,-0.2636,-0.2678,-0.2738,-0.2759,-0.2792,-0.2798,-0.2847,-0.2887,-0.2862,-0.2903,-0.2875,-0.2867,-0.2856,-0.2771,-0.2722,-0.2341,-0.2298,-0.2662,-0.2663,-0.2665,-0.2666,0,-0.2296,-0.2369,-0.2401,-0.2422,-0.2513,-0.2545,-0.2589,-0.2664,-0.2675,-0.2715,-0.2705,-0.2732,-0.271,-0.2717,-0.2756,-0.2788,-0.2694,-0.2715,-0.262,-0.261,-0.2392,-0.2367,-0.2679,-0.268,-0.2681,-0.2681,-0.2682,0,-0.2232,-0.2244,-0.2351,-0.2363,-0.2361,-0.2463,-0.2462,-0.2514,-0.2555,-0.2553,-0.2645,-0.2616,-0.2686,-0.2664,-0.2682,-0.2605,-0.2614,-0.2605,-0.2558,-0.2427,-0.2409,-0.2655,-0.2656,-0.267,-0.2673,-0.2675,-0.2677,0,-0.2104,-0.219,-0.2206,-0.2298,-0.2315,-0.2307,-0.2366,-0.2362,-0.2427,-0.2414,-0.2423,-0.2498,-0.248,-0.2507,-0.2491,-0.2482,-0.2437,-0.2408,-0.2208,-0.2148,-0.2345,-0.2356,-0.22,-0.2197,-0.2194,-0.2192,-0.219,0,-0.2046,-0.2044,-0.2111,-0.2112,-0.2152,-0.2166,-0.2169,-0.2263,-0.2276,-0.2343,-0.2319,-0.2333,-0.2329,-0.2254,-0.2255,-0.2174,-0.2314,-0.1977,-0.2065,-0.2338,-0.2306,-0.2322,-0.2336,-0.1763,-0.1758,-0.1754,-0.1751,0,-0.1905,-0.193,-0.1949,-0.1946,-0.1959,-0.1964,-0.1996,-0.1992,-0.2107,-0.2109,-0.2132,-0.2142,-0.211,-0.2001,-0.195,-0.1908,-0.1988,-0.1889,-0.22,-0.1972,-0.1921,-0.1894,-0.1922,-0.1713,-0.1717,-0.1719,-0.1721,-0.1723,-0.1769,-0.1738,-0.1764,-0.1752,-0.1768,-0.1775,-0.1737,-0.18,-0.18,-0.1812,-0.1907,-0.1864,-0.1882,-0.1729,-0.1655,-0.16,-0.1739,-0.167,-0.1684,-0.1702,-0.1765,-0.172,-0.1475,-0.1477,-0.1479,-0.1481,-0.1482,0,-0.1592,-0.1593,-0.1571,-0.1573,-0.1542,-0.1608,-0.1621,-0.158,-0.1551,-0.1592,-0.159,-0.1462,-0.1398,-0.1426,-0.1283,-0.1266,-0.1263,-0.1218,-0.1214,-0.1251,-0.1284,-0.1329,-0.092,-0.0918,-0.0917,-0.0916,0,0,-0.1502,-0.144,-0.1447,-0.1359,-0.136,-0.1288,-0.1274,-0.1242,-0.1242,-0.1185,-0.1168,-0.1286,-0.136,-0.1135,-0.1089,-0.0977,-0.1101,-0.0927,-0.1373,-0.1402,-0.1433,-0.1535,-0.1644,0,0,0,0,0]},{"header":{"parameterUnit":"m.s-1","parameterCategory":2,"la1":30.2991,"la2":30.254,"lo1":-89.0895,"lo2":-89.0444,"dy":0.0017,"dx":0.0017,"nx":28,"ny":28,"refTime":"2024-08-27T03:00:00:Z","depth":"2","parameterNumber":3,"parameterNumberName":"V-component_of_CURRENTS"},"data":[0,0,0,0,0,0,0,0,0,0,0,0,0,0,0,0,0,0,0,0,0,0,0,0,0,0,0,0,0,0,0,0,0,0,0,0,0,0,0,0,0,0,0,0,0,0,0,0,0,0,0,0,0,0,0,0,0,0,0.0052,0.0053,0,0.0134,0.0135,0.0136,0.0167,0.0166,0.0166,0.0166,0.023,0.0232,0.0234,0,0,0,0,0,0,0,0,0,0,0,0,0,-0.0026,-0.0025,0.0052,0.0053,0.0054,0.0133,0.0135,0.0136,0.0167,0.0166,0.0166,0.0166,0.023,0.0232,0.0235,0,0,0,0,0,0,0,0,0,0,0,0,0,0.0027,-0.0025,0.0051,0.0078,0.0081,0.0133,0.0135,0.0136,0.0167,0.0166,0.0166,0.0165,0.0229,0.0232,0.0235,0.0263,0,0,0.0244,0.0245,0,0,0,0,0,0,0,0,0.0024,0.003,0.0073,0.0076,0.008,0.0139,0.0131,0.0178,0.0167,0.0135,0.0166,0.0165,0.0198,0.0203,0.0221,0.0266,0.0269,0.0244,0.0246,0.0248,0.0248,0,0,0,0,0,0,0,0.002,0.0027,0.0085,0.0074,0.0078,0.0103,0.011,0.014,0.0169,0.0138,0.014,0.0148,0.02,0.0218,0.0223,0.027,0.0244,0.0247,0.0249,0.025,0.0377,0.0378,0,0,0,0,0,0,0.0007,0.0024,0.0082,0.0087,0.0049,0.0105,0.0112,0.0121,0.0169,0.0176,0.0148,0.0149,0.0214,0.022,0.0225,0.0262,0.0248,0.025,0.0252,0.0375,0.0377,0.0379,0,0,0,0,0,0,0.0005,0.0011,0.0079,0.0056,0.0067,0.0106,0.0116,0.0123,0.0135,0.0177,0.0183,0.0152,0.0213,0.0221,0.0258,0.0265,0.0252,0.0255,0.0373,0.0376,0.0378,0.0335,0,0,0,0,0,0,0.0002,0.001,0.0005,0.0056,0.0067,0.01,0.0117,0.0125,0.014,0.0142,0.0182,0.0188,0.0214,0.0254,0.0261,0.0269,0.0257,0.0371,0.0375,0.0377,0.0335,0.0336,0.0337,0,0,0,0,0,-0.0001,-0.0013,0.0005,0.0011,0.0062,0.01,0.0108,0.0135,0.014,0.0144,0.0181,0.0186,0.0278,0.0257,0.0266,0.0274,0.037,0.0374,0.0377,0.0334,0.0336,0.0337,0,0,0,0,0,0,-0.0055,-0.001,0.0011,0.0012,0.0051,0.0104,0.0101,0.013,0.0163,0.0158,0.0201,0.021,0.0248,0.0274,0.025,0.0325,0.0327,0.0332,0.0292,0.0294,0.0295,0.0255,0.0259,0,0,0,0,0,-0.0066,-0.0067,-0.0008,-0.0011,0.0005,0.0054,0.007,0.0095,0.0133,0.0147,0.0181,0.0224,0.0273,0.029,0.0331,0.0364,0.0374,0.0381,0.0382,0.0382,0.036,0.0394,0.0395,0.039,0.039,0.039,0,0,-0.0092,-0.0067,-0.0068,-0.0023,0.0003,0.0012,0.0061,0.0078,0.009,0.0148,0.0165,0.0224,0.0284,0.0327,0.0346,0.0345,0.0392,0.0387,0.0386,0.0363,0.0398,0.0398,0.0398,0.0393,0.0392,0.0392,0,0,-0.0154,-0.0118,-0.0141,-0.0107,-0.0066,-0.0029,-0.0027,0.003,0.006,0.0098,0.0151,0.0219,0.027,0.0332,0.0366,0.0401,0.0398,0.0411,0.0378,0.0412,0.0411,0.0411,0.0424,0.0425,0.0409,0.0409,0.0409,0,-0.0191,-0.0198,-0.0141,-0.0147,-0.0129,-0.0055,-0.0065,-0.0022,0.0042,0.0069,0.0091,0.0209,0.0277,0.034,0.0365,0.0401,0.0399,0.0362,0.0408,0.0408,0.0409,0.0423,0.0424,0.0408,0.0408,0.0408,0.0408,0,-0.0262,-0.026,-0.027,-0.0252,-0.0223,-0.0217,-0.0144,-0.0112,-0.0064,-0.0012,0.0062,0.0168,0.0235,0.0286,0.0338,0.0384,0.0376,0.0403,0.0392,0.0406,0.0421,0.0423,0.0405,0.0406,0.0406,0.0407,0,0,-0.0359,-0.033,-0.0331,-0.0325,-0.0271,-0.025,-0.0228,-0.0173,-0.0153,-0.0072,-0.004,0.0095,0.0153,0.0199,0.0286,0.0335,0.0372,0.0359,0.0362,0.0348,0.0411,0.0453,0.046,0.0387,0.0387,0.0388,0.042,0,-0.0432,-0.0462,-0.0423,-0.0438,-0.0437,-0.0356,-0.0335,-0.0271,-0.0202,-0.0151,-0.0029,0.0038,0.0118,0.0166,0.0224,0.0342,0.0374,0.0358,0.0421,0.0423,0.0438,0.0464,0.0435,0.0465,0.0422,0.0423,0.0423,0,-0.0507,-0.051,-0.0542,-0.0502,-0.0496,-0.0493,-0.043,-0.04,-0.0305,-0.0246,-0.0172,-0.0084,0.0025,0.009,0.0235,0.0208,0.0293,0.0375,0.0379,0.0427,0.047,0.0448,0.0471,0.0427,0.0427,0.0426,0.0426,0,-0.0581,-0.0583,-0.0609,-0.0596,-0.0551,-0.0546,-0.052,-0.0436,-0.0397,-0.0312,-0.0273,-0.0163,-0.0083,0.0018,0.0208,0.0206,0.0353,0.0378,0.0482,0.0485,0.048,0.0482,0.045,0.045,0.045,0.045,0.045,0,-0.0656,-0.0673,-0.0645,-0.0654,-0.0666,-0.0611,-0.0605,-0.0553,-0.0484,-0.0444,-0.0332,-0.027,-0.0098,0.002,0.0157,0.0331,0.031,0.0468,0.05,0.0468,0.0469,0.0452,0.0452,0.0451,0.0451,0.045,0.045,0,-0.0726,-0.0719,-0.0732,-0.0704,-0.07,-0.0703,-0.0662,-0.0647,-0.0577,-0.0524,-0.0501,-0.0352,-0.0195,-0.0022,0.0173,0.0286,0.0443,0.0505,0.045,0.0476,0.0552,0.0549,0.0598,0.0599,0.0601,0.0602,0.0603,0,-0.077,-0.0785,-0.0767,-0.0775,-0.0768,-0.0765,-0.0759,-0.07,-0.0674,-0.056,-0.0537,-0.0385,-0.025,0.0038,0.0256,0.0468,0.0483,0.056,0.0576,0.0543,0.0568,0.0564,0.0559,0.0547,0.0548,0.0548,0.0548,0,-0.0828,-0.0816,-0.0816,-0.0828,-0.0836,-0.0839,-0.0827,-0.0821,-0.0743,-0.0682,-0.0572,-0.0463,-0.018,0.0069,0.0348,0.0467,0.0523,0.0577,0.0559,0.0524,0.0501,0.0525,0.0521,0.0552,0.0552,0.0552,0.0551,0.0551,-0.0854,-0.0863,-0.0854,-0.0866,-0.0884,-0.09,-0.0897,-0.0867,-0.0826,-0.0712,-0.0611,-0.0422,-0.018,0.0221,0.0422,0.0596,0.0593,0.0638,0.0633,0.0629,0.0628,0.0611,0.068,0.068,0.068,0.0681,0.0681,0,-0.0867,-0.0875,-0.089,-0.0904,-0.0932,-0.0928,-0.0925,-0.0898,-0.0846,-0.0716,-0.0584,-0.0322,-0.0035,0.0209,0.0502,0.068,0.0653,0.0691,0.063,0.0625,0.0621,0.0617,0.0668,0.0668,0.0669,0.0669,0,0,-0.0873,-0.0885,-0.089,-0.0934,-0.0953,-0.0969,-0.0964,-0.0907,-0.0809,-0.0675,-0.053,-0.0326,-0.0023,0.0183,0.0403,0.0553,0.0538,0.0552,0.0543,0.0441,0.0435,0.0571,0.0558,0,0,0,0,0]}],[{"header":{"parameterUnit":"m.s-1","parameterCategory":2,"la1":30.2991,"la2":30.254,"lo1":-89.0895,"lo2":-89.0444,"dy":0.0017,"dx":0.0017,"nx":28,"ny":28,"refTime":"2024-08-27T03:00:00:Z","depth":"4","parameterNumber":2,"parameterNumberName":"U-component_of_CURRENTS"},"data":[0,0,0,0,0,0,0,0,0,0,0,0,0,0,0,0,0,0,0,0,0,0,0,0,0,0,0,0,0,0,0,0,0,0,0,0,0,0,0,0,0,0,0,0,0,0,0,0,0,0,0,0,0,0,0,0,0,0,-0.1101,-0.1102,0,-0.1175,-0.1176,-0.1176,-0.1214,-0.1214,-0.1214,-0.1215,-0.127,-0.1271,-0.1272,0,0,0,0,0,0,0,0,0,0,0,0,0,-0.1009,-0.101,-0.1101,-0.1102,-0.1103,-0.1175,-0.1176,-0.1176,-0.1214,-0.1214,-0.1215,-0.1215,-0.127,-0.1271,-0.1272,0,0,0,0,0,0,0,0,0,0,0,0,0,-0.1059,-0.101,-0.11,-0.1133,-0.1137,-0.1175,-0.1176,-0.1176,-0.1214,-0.1214,-0.1215,-0.1215,-0.1269,-0.1271,-0.1273,-0.1273,0,0,-0.1278,-0.1279,0,0,0,0,0,0,0,0,-0.1056,-0.1062,-0.1127,-0.1131,-0.1135,-0.1189,-0.1164,-0.1209,-0.1214,-0.1181,-0.1215,-0.1215,-0.1243,-0.1247,-0.1255,-0.1276,-0.1278,-0.1278,-0.1279,-0.128,-0.128,0,0,0,0,0,0,0,-0.1052,-0.1059,-0.1127,-0.1128,-0.1133,-0.115,-0.1157,-0.1172,-0.1205,-0.1184,-0.1188,-0.1201,-0.1245,-0.1253,-0.1257,-0.1279,-0.1278,-0.128,-0.1281,-0.1281,-0.1373,-0.1375,0,0,0,0,0,0,-0.1049,-0.1056,-0.1124,-0.1129,-0.11,-0.1152,-0.1159,-0.1168,-0.1206,-0.1213,-0.1201,-0.1203,-0.125,-0.1255,-0.1259,-0.1322,-0.128,-0.1282,-0.1283,-0.1372,-0.1374,-0.1375,0,0,0,0,0,0,-0.1046,-0.1054,-0.1121,-0.1097,-0.1107,-0.1153,-0.1162,-0.117,-0.1197,-0.1219,-0.1226,-0.1223,-0.1251,-0.1256,-0.1305,-0.1322,-0.1282,-0.1284,-0.137,-0.1372,-0.1374,-0.1409,0,0,0,0,0,0,-0.1043,-0.1052,-0.1065,-0.1097,-0.1109,-0.1162,-0.1162,-0.1171,-0.1205,-0.1209,-0.124,-0.1245,-0.1252,-0.1302,-0.1306,-0.1323,-0.1285,-0.1368,-0.1371,-0.1374,-0.1406,-0.1412,-0.1417,0,0,0,0,0,-0.104,-0.1057,-0.1065,-0.1074,-0.1122,-0.1164,-0.1172,-0.1203,-0.1206,-0.1227,-0.1256,-0.1245,-0.1321,-0.1305,-0.131,-0.1327,-0.1367,-0.137,-0.1373,-0.1403,-0.1411,-0.1417,0,0,0,0,0,0,-0.1031,-0.1064,-0.1073,-0.1102,-0.1138,-0.1172,-0.1195,-0.1212,-0.1249,-0.1257,-0.1268,-0.1276,-0.1322,-0.1324,-0.1306,-0.1363,-0.134,-0.1344,-0.1361,-0.1368,-0.1374,-0.1396,-0.1287,0,0,0,0,0,-0.1033,-0.1044,-0.1088,-0.1107,-0.1129,-0.1162,-0.1185,-0.1209,-0.1243,-0.126,-0.1289,-0.1314,-0.1334,-0.1352,-0.1375,-0.1408,-0.1418,-0.1422,-0.1427,-0.1432,-0.1454,-0.1466,-0.1475,-0.1385,-0.1385,-0.1385,0,0,-0.1039,-0.1052,-0.1064,-0.1105,-0.1131,-0.1175,-0.1177,-0.122,-0.1257,-0.1259,-0.1323,-0.1338,-0.1349,-0.1391,-0.141,-0.1397,-0.1467,-0.1436,-0.1439,-0.146,-0.1471,-0.1479,-0.1487,-0.1387,-0.1387,-0.1387,0,0,-0.1049,-0.1065,-0.1085,-0.1122,-0.1169,-0.119,-0.1207,-0.1262,-0.129,-0.1351,-0.1355,-0.1395,-0.1433,-0.1451,-0.1458,-0.1509,-0.1496,-0.1502,-0.1549,-0.1559,-0.1567,-0.1573,-0.1614,-0.1623,-0.1504,-0.1504,-0.1504,0,-0.1054,-0.1091,-0.1101,-0.1138,-0.1183,-0.12,-0.1257,-0.1278,-0.1345,-0.1371,-0.1382,-0.1451,-0.1467,-0.1501,-0.1527,-0.1523,-0.153,-0.1518,-0.1566,-0.1572,-0.1578,-0.1618,-0.1628,-0.1506,-0.1506,-0.1506,-0.1506,0,-0.1085,-0.1132,-0.115,-0.1197,-0.124,-0.1291,-0.1334,-0.1371,-0.1405,-0.1431,-0.1493,-0.1525,-0.1569,-0.1568,-0.157,-0.1612,-0.1606,-0.1568,-0.1545,-0.1589,-0.1629,-0.1639,-0.1509,-0.1508,-0.1508,-0.1507,0,0,-0.1071,-0.1155,-0.1172,-0.1216,-0.1289,-0.1324,-0.1379,-0.1438,-0.1477,-0.1525,-0.1593,-0.1626,-0.1642,-0.1654,-0.1652,-0.1667,-0.1727,-0.1643,-0.1643,-0.168,-0.1771,-0.1613,-0.1609,-0.1682,-0.1684,-0.1685,-0.1787,0,-0.1105,-0.1189,-0.1228,-0.132,-0.1378,-0.142,-0.1476,-0.1522,-0.1562,-0.1626,-0.1641,-0.17,-0.1668,-0.1706,-0.1715,-0.1732,-0.1753,-0.1705,-0.1728,-0.1731,-0.1579,-0.1614,-0.169,-0.1794,-0.1797,-0.1798,-0.18,0,-0.1145,-0.1196,-0.1304,-0.1402,-0.1433,-0.1487,-0.1578,-0.1629,-0.1689,-0.1728,-0.1767,-0.1781,-0.1835,-0.1799,-0.184,-0.1806,-0.1805,-0.1802,-0.1805,-0.1653,-0.1589,-0.1739,-0.1818,-0.1816,-0.1815,-0.1814,-0.1813,0,-0.1146,-0.1256,-0.1342,-0.1383,-0.1489,-0.1543,-0.1594,-0.1665,-0.1705,-0.1796,-0.1836,-0.1883,-0.1924,-0.1928,-0.191,-0.1892,-0.194,-0.1911,-0.1769,-0.176,-0.1858,-0.1849,-0.1938,-0.1938,-0.1938,-0.1937,-0.1937,0,-0.1176,-0.1247,-0.1351,-0.1402,-0.1491,-0.157,-0.1655,-0.1709,-0.1794,-0.1825,-0.1887,-0.1909,-0.1951,-0.1961,-0.1953,-0.1882,-0.197,-0.1795,-0.1768,-0.1873,-0.1865,-0.1866,-0.1856,-0.1941,-0.194,-0.194,-0.1939,0,-0.117,-0.1247,-0.1341,-0.1462,-0.1499,-0.1564,-0.1664,-0.17,-0.1803,-0.1853,-0.1885,-0.1949,-0.1956,-0.1968,-0.199,-0.1912,-0.1885,-0.1831,-0.1975,-0.1952,-0.1706,-0.1698,-0.1726,-0.1721,-0.1717,-0.1714,-0.1711,0,-0.1164,-0.1223,-0.1361,-0.1394,-0.145,-0.1542,-0.1583,-0.1694,-0.1716,-0.1833,-0.1834,-0.1892,-0.1905,-0.1826,-0.1857,-0.184,-0.1788,-0.1792,-0.1727,-0.171,-0.1683,-0.168,-0.1677,-0.1704,-0.1703,-0.1702,-0.1701,0,-0.1146,-0.1214,-0.1276,-0.1347,-0.1402,-0.1452,-0.1517,-0.1532,-0.1637,-0.1742,-0.1729,-0.1728,-0.1728,-0.1726,-0.1706,-0.1684,-0.1807,-0.1748,-0.1756,-0.1696,-0.1684,-0.166,-0.1662,-0.1686,-0.1688,-0.169,-0.1691,0,-0.1106,-0.1139,-0.1215,-0.1261,-0.132,-0.1328,-0.1388,-0.14,-0.1448,-0.1573,-0.1561,-0.1622,-0.1699,-0.1644,-0.1629,-0.1592,-0.1569,-0.1521,-0.1541,-0.1558,-0.1444,-0.14,-0.1303,0,0,0,0,0,-0.1048,-0.1065,-0.1104,-0.1142,-0.1193,-0.1222,-0.131,-0.1367,-0.1476,-0.1418,-0.1486,-0.1473,-0.1454,-0.1493,-0.1417,-0.1555,-0.1578,-0.1461,-0.1535,-0.1606,-0.1623,-0.1499,0,0,0,0,0,0,-0.0996,-0.1049,-0.1067,-0.1023,-0.1015,-0.1052,-0.1105,-0.1186,-0.1163,-0.1284,-0.1277,-0.1368,-0.1369,-0.1458,-0.1377,-0.1388,-0.1402,-0.1507,-0.1503,-0.1597,-0.1612,-0.1625,-0.1504,0,0,0,0,0]},{"header":{"parameterUnit":"m.s-1","parameterCategory":2,"la1":30.2991,"la2":30.254,"lo1":-89.0895,"lo2":-89.0444,"dy":0.0017,"dx":0.0017,"nx":28,"ny":28,"refTime":"2024-08-27T03:00:00:Z","depth":"4","parameterNumber":3,"parameterNumberName":"V-component_of_CURRENTS"},"data":[0,0,0,0,0,0,0,0,0,0,0,0,0,0,0,0,0,0,0,0,0,0,0,0,0,0,0,0,0,0,0,0,0,0,0,0,0,0,0,0,0,0,0,0,0,0,0,0,0,0,0,0,0,0,0,0,0,0,-0.009,-0.0089,0,-0.0062,-0.0062,-0.0062,-0.0046,-0.0046,-0.0045,-0.0045,0.0004,0.0005,0.0006,0,0,0,0,0,0,0,0,0,0,0,0,0,-0.0104,-0.0104,-0.009,-0.0089,-0.0089,-0.0062,-0.0062,-0.0061,-0.0046,-0.0046,-0.0045,-0.0045,0.0003,0.0005,0.0006,0,0,0,0,0,0,0,0,0,0,0,0,0,-0.009,-0.0104,-0.009,-0.0077,-0.0075,-0.0062,-0.0062,-0.0061,-0.0046,-0.0046,-0.0045,-0.0045,0.0003,0.0005,0.0006,0.0012,0,0,0.0012,0.0012,0,0,0,0,0,0,0,0,-0.0091,-0.009,-0.0079,-0.0078,-0.0076,-0.0056,-0.0049,-0.0035,-0.0046,-0.0058,-0.0045,-0.0045,-0.0014,-0.0011,-0.0008,0.0015,0.0017,0.0012,0.0013,0.0014,0.0014,0,0,0,0,0,0,0,-0.0092,-0.0091,-0.008,-0.0079,-0.0077,-0.0064,-0.0062,-0.0046,-0.0038,-0.0057,-0.0056,-0.0051,-0.0013,-0.001,-0.0006,0.0018,0.0012,0.0013,0.0014,0.0015,0.0023,0.0022,0,0,0,0,0,0,-0.0095,-0.0092,-0.0081,-0.0079,-0.0082,-0.0064,-0.0062,-0.0064,-0.0039,-0.0035,-0.0051,-0.005,-0.0013,-0.0009,-0.0005,-0.0018,0.0014,0.0015,0.0016,0.0024,0.0023,0.0022,0,0,0,0,0,0,-0.0096,-0.0095,-0.0082,-0.0083,-0.0081,-0.0064,-0.0066,-0.0063,-0.0058,-0.0034,-0.003,-0.0049,-0.0012,-0.0007,0.0002,-0.0015,0.0016,0.0018,0.0025,0.0023,0.0022,-0.003,0,0,0,0,0,0,-0.0096,-0.0095,-0.0096,-0.0084,-0.0081,-0.0084,-0.0066,-0.0063,-0.0055,-0.0054,-0.0031,-0.0026,-0.0012,-0.0001,0.0003,-0.0012,0.0019,0.0026,0.0024,0.0023,-0.0027,-0.0033,-0.0038,0,0,0,0,0,-0.0097,-0.0101,-0.0096,-0.0095,-0.0083,-0.0084,-0.0082,-0.0069,-0.0056,-0.0062,-0.0045,-0.0027,-0.0008,-0.0,0.0005,-0.001,0.0027,0.0025,0.0023,-0.0025,-0.0032,-0.0037,0,0,0,0,0,0,-0.0107,-0.0099,-0.0094,-0.0095,-0.0094,-0.0081,-0.008,-0.007,-0.0061,-0.0056,-0.0032,-0.0027,-0.0032,-0.0011,-0.0003,-0.0013,0.001,0.0009,-0.0028,-0.0034,-0.0039,-0.0027,0.002,0,0,0,0,0,-0.011,-0.0114,-0.0105,-0.0109,-0.0106,-0.0092,-0.0088,-0.0083,-0.0072,-0.0068,-0.0051,-0.0036,-0.0036,-0.0026,-0.0022,-0.0017,0.003,-0.0025,-0.003,-0.0035,-0.0022,0.0031,0.0032,0.0016,0.0016,0.0016,0,0,-0.0113,-0.0111,-0.0112,-0.0112,-0.0106,-0.0116,-0.009,-0.009,-0.01,-0.0063,-0.0067,-0.0056,-0.0041,-0.0048,-0.0047,-0.0029,-0.0007,-0.0037,-0.0041,-0.0025,0.0029,0.0031,0.0033,0.0014,0.0015,0.0015,0,0,-0.0136,-0.0122,-0.0139,-0.0139,-0.0136,-0.0129,-0.0131,-0.012,-0.0115,-0.0117,-0.0102,-0.0091,-0.0085,-0.0075,-0.007,-0.0096,-0.0043,-0.0105,-0.0111,-0.0061,-0.0058,-0.0055,0.0005,0.0014,-0.0099,-0.0099,-0.0099,0,-0.0143,-0.0162,-0.0144,-0.0162,-0.0162,-0.0139,-0.0157,-0.0153,-0.0143,-0.0136,-0.0127,-0.0105,-0.0096,-0.0091,-0.011,-0.0106,-0.0064,-0.009,-0.0065,-0.0062,-0.0058,0.0004,0.0014,-0.0102,-0.0101,-0.0101,-0.0101,0,-0.0182,-0.0195,-0.0203,-0.022,-0.0217,-0.0227,-0.0216,-0.0212,-0.0198,-0.019,-0.0178,-0.0153,-0.0133,-0.0141,-0.0135,-0.0114,-0.0089,-0.0084,-0.0046,-0.0059,0.0006,0.0018,-0.0106,-0.0105,-0.0104,-0.0103,0,0,-0.021,-0.0229,-0.0234,-0.0246,-0.0246,-0.0249,-0.0256,-0.0255,-0.0247,-0.0232,-0.0214,-0.0214,-0.0181,-0.0172,-0.0153,-0.0111,-0.006,-0.0089,-0.0085,-0.0023,0.0065,0.0038,0.0048,-0.005,-0.0048,-0.0047,0.0099,0,-0.0251,-0.0297,-0.029,-0.0324,-0.0341,-0.0313,-0.032,-0.031,-0.0288,-0.0264,-0.0225,-0.0211,-0.0199,-0.0182,-0.0141,-0.0083,-0.0032,-0.0099,0.0063,0.0069,0.0051,0.006,-0.0042,0.0108,0.0111,0.0113,0.0115,0,-0.0302,-0.032,-0.0365,-0.0371,-0.0373,-0.0388,-0.0367,-0.0371,-0.0332,-0.0305,-0.0262,-0.0227,-0.0172,-0.0158,-0.0033,-0.0076,-0.0009,0.0045,0.0052,0.0057,0.0063,0.0125,0.0137,0.0135,0.0133,0.0132,0.0131,0,-0.0342,-0.0373,-0.041,-0.0414,-0.0417,-0.0423,-0.0421,-0.0391,-0.0385,-0.0326,-0.0299,-0.0221,-0.0179,-0.0081,0.0012,-0.0001,0.0161,0.016,0.0208,0.0208,0.0214,0.021,0.026,0.026,0.0259,0.0259,0.0259,0,-0.0392,-0.0422,-0.0433,-0.0452,-0.048,-0.0462,-0.0473,-0.0451,-0.0411,-0.0398,-0.0325,-0.0283,-0.016,-0.0064,0.0031,0.0155,0.0182,0.022,0.0244,0.0187,0.0177,0.0223,0.0217,0.0265,0.0263,0.0262,0.0261,0,-0.0443,-0.0456,-0.0494,-0.0501,-0.0508,-0.0528,-0.0525,-0.052,-0.0474,-0.0445,-0.0428,-0.0322,-0.0193,-0.0063,0.0105,0.0168,0.0295,0.033,0.0272,0.0288,0.0312,0.0301,0.042,0.042,0.042,0.0421,0.0421,0,-0.0477,-0.0505,-0.0534,-0.0554,-0.0565,-0.0586,-0.0597,-0.0564,-0.0551,-0.0471,-0.0455,-0.0333,-0.0252,-0.0017,0.011,0.0313,0.0321,0.0396,0.0344,0.0318,0.033,0.0318,0.0307,0.0421,0.0421,0.0421,0.0421,0,-0.0528,-0.0543,-0.0566,-0.0604,-0.0628,-0.0651,-0.066,-0.0653,-0.0601,-0.0563,-0.0462,-0.0339,-0.0194,-0.0024,0.0128,0.0264,0.0354,0.0398,0.0399,0.0351,0.032,0.0329,0.0319,0.0422,0.0422,0.0422,0.0422,0,-0.0558,-0.0585,-0.0611,-0.0639,-0.0679,-0.0696,-0.0696,-0.0661,-0.0639,-0.0541,-0.0512,-0.0344,-0.0246,-0.0049,0.0091,0.0223,0.025,0.0283,0.029,0.029,0.0189,0.0128,0.0204,0,0,0,0,0,-0.0574,-0.0603,-0.0637,-0.0667,-0.0706,-0.0721,-0.0725,-0.0709,-0.0663,-0.0597,-0.0548,-0.0409,-0.0189,-0.0093,0.0036,0.0081,0.026,0.0234,0.0298,0.0426,0.0426,0.0324,0,0,0,0,0,0,-0.058,-0.0627,-0.0638,-0.0682,-0.0705,-0.0741,-0.0743,-0.0711,-0.0661,-0.0599,-0.0481,-0.0397,-0.0185,-0.0267,0.0031,0.0072,0.0126,0.0344,0.0346,0.0427,0.0426,0.0425,0.032,0,0,0,0,0]}]]